Wetterstation Vettwei-Soller: Standort 50 43' 54" Nord - 6 33' 24" Ost
Wetterdaten: aktuell Sonntag, 25.07.2021 11:00
Datum Zeit Temp. A. Temp. A. min Temp. A. max Feuchte A. Luftdruck Regen Wind Richtung Richtung Sonnenschein Zeit Regen ET UV Solar Taupunkt Windchill Windben
25.07.2021 11:00 22,9 C 21,9 C 22,9 C 66 % 1009,4 hPa 0,0 l/m 8,0 km/h (2 Bft) S 190 15 min 0 min 0,305 mm 3,7 UV-I 656 W/m 16,2 C 22,9 C 17,7 km/h (3 Bft)
25.07.2021 10:45 22,1 C 22,1 C 22,8 C 67 % 1009,4 hPa 0,0 l/m 8,3 km/h (2 Bft) S-SW 207 0 min 0 min 0,000 mm 1,9 UV-I 123 W/m 15,7 C 22,1 C 19,3 km/h (3 Bft)
25.07.2021 10:30 22,6 C 22,5 C 22,7 C 67 % 1009,4 hPa 0,2 l/m 8,5 km/h (2 Bft) SW 223 15 min 15 min 0,000 mm 2,9 UV-I 615 W/m 16,2 C 22,6 C 19,3 km/h (3 Bft)
25.07.2021 10:15 22,6 C 21,6 C 22,6 C 68 % 1009,4 hPa 0,0 l/m 4,9 km/h (1 Bft) S-SW 196 15 min 0 min 0,000 mm 2,6 UV-I 563 W/m 16,4 C 22,6 C 17,7 km/h (3 Bft)
25.07.2021 10:00 21,6 C 21,6 C 22,1 C 71 % 1009,4 hPa 0,0 l/m 3,5 km/h (1 Bft) S-SW 213 0 min 0 min 0,178 mm 1,7 UV-I 167 W/m 16,1 C 21,6 C 8,0 km/h (2 Bft)
25.07.2021 09:45 22,1 C 21,3 C 22,2 C 70 % 1009,4 hPa 0,0 l/m 2,0 km/h (1 Bft) W-NW 286 0 min 0 min 0,000 mm 1,5 UV-I 190 W/m 16,4 C 22,1 C 6,4 km/h (2 Bft)
25.07.2021 09:30 21,3 C 20,6 C 21,3 C 72 % 1009,3 hPa 0,0 l/m 0,0 km/h (0 Bft) SW 214 15 min 0 min 0,000 mm 1,6 UV-I 403 W/m 16,0 C 21,3 C 0,0 km/h (0 Bft)
25.07.2021 09:15 20,6 C 19,8 C 20,6 C 77 % 1009,2 hPa 0,0 l/m 0,0 km/h (0 Bft) S-SW 202 15 min 0 min 0,000 mm 1,4 UV-I 320 W/m 16,4 C 20,6 C 0,0 km/h (0 Bft)
25.07.2021 09:00 19,9 C 19,0 C 19,9 C 79 % 1009,2 hPa 0,0 l/m 0,0 km/h (0 Bft) S 186 15 min 0 min 0,076 mm 1,2 UV-I 285 W/m 16,1 C 19,9 C 0,0 km/h (0 Bft)
25.07.2021 08:45 19,0 C 18,7 C 19,0 C 82 % 1009,0 hPa 0,0 l/m 0,0 km/h (0 Bft) S 178 0 min 0 min 0,000 mm 0,9 UV-I 97 W/m 15,9 C 19,0 C 0,0 km/h (0 Bft)
25.07.2021 08:30 18,7 C 18,2 C 18,7 C 82 % 1009,0 hPa 0,0 l/m 0,0 km/h (0 Bft) S 178 0 min 0 min 0,000 mm 0,5 UV-I 109 W/m 15,6 C 18,7 C 0,0 km/h (0 Bft)
25.07.2021 08:15 18,2 C 18,0 C 18,2 C 87 % 1009,0 hPa 0,0 l/m 0,0 km/h (0 Bft) SO 139 0 min 0 min 0,000 mm 0,0 UV-I 81 W/m 16,0 C 18,2 C 0,0 km/h (0 Bft)
25.07.2021 08:00 18,0 C 17,5 C 18,1 C 88 % 1009,2 hPa 0,0 l/m 0,0 km/h (0 Bft) SO 139 0 min 0 min 0,051 mm 0,0 UV-I 72 W/m 16,0 C 18,0 C 0,0 km/h (0 Bft)
25.07.2021 07:45 17,5 C 17,2 C 17,6 C 88 % 1009,1 hPa 0,0 l/m 0,0 km/h (0 Bft) S-SW 200 0 min 0 min 0,000 mm 0,0 UV-I 88 W/m 15,5 C 17,5 C 0,0 km/h (0 Bft)
25.07.2021 07:30 17,2 C 17,1 C 17,2 C 88 % 1009,2 hPa 0,0 l/m 0,0 km/h (0 Bft) S-SW 200 0 min 0 min 0,000 mm 0,0 UV-I 65 W/m 15,2 C 17,2 C 0,0 km/h (0 Bft)
25.07.2021 07:15 17,1 C 16,5 C 17,2 C 88 % 1009,2 hPa 0,0 l/m 0,0 km/h (0 Bft) S-SW 200 0 min 0 min 0,000 mm 0,0 UV-I 79 W/m 15,1 C 17,1 C 0,0 km/h (0 Bft)
25.07.2021 07:00 16,5 C 15,7 C 16,5 C 89 % 1009,0 hPa 0,0 l/m 0,0 km/h (0 Bft) S-SW 200 15 min 0 min 0,025 mm 0,0 UV-I 95 W/m 14,7 C 16,5 C 0,0 km/h (0 Bft)
25.07.2021 06:45 15,7 C 15,2 C 15,7 C 90 % 1008,9 hPa 0,0 l/m 0,0 km/h (0 Bft) S-SW 200 15 min 0 min 0,000 mm 0,0 UV-I 65 W/m 14,1 C 15,7 C 0,0 km/h (0 Bft)
25.07.2021 06:30 15,2 C 15,1 C 15,2 C 91 % 1009,0 hPa 0,0 l/m 0,0 km/h (0 Bft) S-SW 199 0 min 0 min 0,000 mm 0,0 UV-I 26 W/m 13,7 C 15,2 C 0,0 km/h (0 Bft)
25.07.2021 06:15 15,2 C 14,8 C 15,2 C 91 % 1009,0 hPa 0,0 l/m 0,0 km/h (0 Bft) S-SW 199 0 min 0 min 0,000 mm 0,0 UV-I 14 W/m 13,7 C 15,2 C 0,0 km/h (0 Bft)
25.07.2021 06:00 14,8 C 14,7 C 15,6 C 90 % 1009,0 hPa 0,0 l/m 0,0 km/h (0 Bft) S-SW 199 0 min 0 min 0,000 mm 0,0 UV-I 7 W/m 13,2 C 14,8 C 0,0 km/h (0 Bft)
25.07.2021 05:45 15,6 C 15,6 C 16,2 C 87 % 1008,9 hPa 0,0 l/m 0,0 km/h (0 Bft) S-SW 200 0 min 0 min 0,000 mm 0,0 UV-I 0 W/m 13,4 C 15,6 C 1,6 km/h (1 Bft)
25.07.2021 05:30 16,2 C 16,2 C 16,4 C 87 % 1008,7 hPa 0,0 l/m 0,0 km/h (0 Bft) W 263 0 min 0 min 0,000 mm 0,0 UV-I 0 W/m 14,0 C 16,2 C 0,0 km/h (0 Bft)
25.07.2021 05:15 16,2 C 15,5 C 16,2 C 89 % 1008,7 hPa 0,0 l/m 0,0 km/h (0 Bft) SW 225 0 min 0 min 0,000 mm 0,0 UV-I 0 W/m 14,4 C 16,2 C 0,0 km/h (0 Bft)
25.07.2021 05:00 15,5 C 15,4 C 15,6 C 91 % 1008,8 hPa 0,0 l/m 0,0 km/h (0 Bft) S-SW 209 0 min 0 min 0,000 mm 0,0 UV-I 0 W/m 14,0 C 15,5 C 0,0 km/h (0 Bft)
25.07.2021 04:45 15,6 C 15,6 C 15,9 C 89 % 1009,0 hPa 0,0 l/m 0,0 km/h (0 Bft) S-SW 209 0 min 0 min 0,000 mm 0,0 UV-I 0 W/m 13,8 C 15,6 C 0,0 km/h (0 Bft)
25.07.2021 04:30 15,9 C 15,9 C 16,1 C 88 % 1009,1 hPa 0,0 l/m 0,0 km/h (0 Bft) S-SW 209 0 min 0 min 0,000 mm 0,0 UV-I 0 W/m 13,9 C 15,9 C 0,0 km/h (0 Bft)
25.07.2021 04:15 16,0 C 15,9 C 16,0 C 88 % 1009,1 hPa 0,0 l/m 0,0 km/h (0 Bft) S-SW 209 0 min 0 min 0,000 mm 0,0 UV-I 0 W/m 14,0 C 16,0 C 0,0 km/h (0 Bft)
25.07.2021 04:00 15,9 C 15,9 C 16,3 C 90 % 1009,1 hPa 0,0 l/m 0,0 km/h (0 Bft) S-SW 209 0 min 0 min 0,000 mm 0,0 UV-I 0 W/m 14,3 C 15,9 C 0,0 km/h (0 Bft)
25.07.2021 03:45 16,3 C 16,3 C 16,5 C 89 % 1009,2 hPa 0,0 l/m 0,4 km/h (0 Bft) S-SW 209 0 min 0 min 0,000 mm 0,0 UV-I 0 W/m 14,5 C 16,3 C 3,2 km/h (1 Bft)
25.07.2021 03:30 16,4 C 16,4 C 16,7 C 89 % 1009,2 hPa 0,0 l/m 0,4 km/h (0 Bft) S-SW 209 0 min 0 min 0,000 mm 0,0 UV-I 0 W/m 14,6 C 16,4 C 3,2 km/h (1 Bft)
25.07.2021 03:15 16,7 C 16,6 C 16,7 C 89 % 1009,2 hPa 0,0 l/m 0,5 km/h (0 Bft) S-SW 209 0 min 0 min 0,000 mm 0,0 UV-I 0 W/m 14,9 C 16,7 C 3,2 km/h (1 Bft)
25.07.2021 03:00 16,6 C 16,6 C 16,7 C 90 % 1009,3 hPa 0,0 l/m 0,0 km/h (0 Bft) S-SW 209 0 min 0 min 0,000 mm 0,0 UV-I 0 W/m 15,0 C 16,6 C 1,6 km/h (1 Bft)
25.07.2021 02:45 16,7 C 16,7 C 16,8 C 90 % 1009,4 hPa 0,0 l/m 0,0 km/h (0 Bft) S-SW 209 0 min 0 min 0,000 mm 0,0 UV-I 0 W/m 15,0 C 16,7 C 0,0 km/h (0 Bft)
25.07.2021 02:30 16,8 C 16,8 C 17,2 C 89 % 1009,4 hPa 0,0 l/m 0,0 km/h (0 Bft) S-SW 209 0 min 0 min 0,000 mm 0,0 UV-I 0 W/m 15,0 C 16,8 C 0,0 km/h (0 Bft)
25.07.2021 02:15 17,2 C 17,1 C 17,2 C 88 % 1009,6 hPa 0,0 l/m 0,1 km/h (0 Bft) S-SW 209 0 min 0 min 0,000 mm 0,0 UV-I 0 W/m 15,2 C 17,2 C 1,6 km/h (1 Bft)
25.07.2021 02:00 17,2 C 17,1 C 17,7 C 87 % 1009,7 hPa 0,0 l/m 0,8 km/h (0 Bft) S-SW 209 0 min 0 min 0,026 mm 0,0 UV-I 0 W/m 15,0 C 17,2 C 4,8 km/h (1 Bft)
25.07.2021 01:45 17,7 C 17,6 C 17,7 C 84 % 1009,8 hPa 0,2 l/m 4,1 km/h (1 Bft) S-SW 209 0 min 15 min 0,000 mm 0,0 UV-I 0 W/m 15,0 C 17,7 C 8,0 km/h (2 Bft)
25.07.2021 01:30 17,7 C 17,7 C 17,8 C 83 % 1009,8 hPa 0,0 l/m 3,5 km/h (1 Bft) S-SW 202 0 min 0 min 0,000 mm 0,0 UV-I 0 W/m 14,8 C 17,7 C 6,4 km/h (2 Bft)
25.07.2021 01:15 17,8 C 17,8 C 17,9 C 83 % 1009,9 hPa 0,0 l/m 2,8 km/h (1 Bft) SW 215 0 min 0 min 0,025 mm 0,0 UV-I 0 W/m 14,9 C 17,8 C 6,4 km/h (2 Bft)
25.07.2021 01:00 17,9 C 17,9 C 18,1 C 84 % 1010,1 hPa 0,0 l/m 1,1 km/h (1 Bft) SW 215 0 min 0 min 0,000 mm 0,0 UV-I 0 W/m 15,2 C 17,9 C 4,8 km/h (1 Bft)
25.07.2021 00:45 18,0 C 17,9 C 18,1 C 84 % 1009,9 hPa 0,0 l/m 1,1 km/h (1 Bft) SW 215 0 min 0 min 0,000 mm 0,0 UV-I 0 W/m 15,3 C 18,0 C 3,2 km/h (1 Bft)
25.07.2021 00:30 17,9 C 17,8 C 18,0 C 85 % 1010,1 hPa 0,0 l/m 1,5 km/h (1 Bft) SW 215 0 min 0 min 0,000 mm 0,0 UV-I 0 W/m 15,3 C 17,9 C 4,8 km/h (1 Bft)
25.07.2021 00:15 17,8 C 17,4 C 17,8 C 87 % 1010,1 hPa 0,0 l/m 2,2 km/h (1 Bft) SW 215 0 min 0 min 0,000 mm 0,0 UV-I 0 W/m 15,6 C 17,8 C 6,4 km/h (2 Bft)
25.07.2021 00:00 17,5 C 17,5 C 17,7 C 88 % 1009,9 hPa 0,0 l/m 1,1 km/h (1 Bft) S-SW 211 0 min 0 min 0,000 mm 0,0 UV-I 0 W/m 15,5 C 17,5 C 4,8 km/h (1 Bft)
_ Min-Zeit 06:00 06:00 06:15 11:00 05:15 - 02:30 - - - - - - - 06:00 06:00 02:30
Minimum _ 14,7 C 14,7 C 15,2 C 66 % 1008,7 hPa - 0,0 km/h (0 Bft) - - - - - - - 13,2 C 14,8 C 0,0 km/h (0 Bft)
_ Max-Zeit 11:00 10:30 11:00 05:00 00:15 01:45 10:30 - - 06:45 01:45 11:00 11:00 11:00 09:15 11:00 10:30
Maximum _ 22,9 C 22,5 C 22,9 C 91 % 1010,1 hPa 0,2 l/m 8,5 km/h
SW (2 Bft)
- - 15 min 15 min 0,305 mm 3,7 UV-I 656 W/m 16,4 C 22,9 C 19,3 km/h
SW (3 Bft)
Durchschnitt _ 17,8 C 17,6 C 18,0 C 84 % 1009,3 hPa #0,4 l/m 1,2 km/h (1 Bft) S-SW - #2:00 h #30 min. #0,686 mm 1,8 UV-I 196 W/m 15,0 C 17,8 C 3,4 km/h (1 Bft)